{"data":{"norad_id":55290,"intl_designator":"2023-010X","name":"STARLINK-5266","alt_names":[],"object_type":"PAYLOAD","status":"ACTIVE","operator":null,"country":"US","launch_date":"2023-01-19","launch_site_code":"AFWTR","launch_vehicle":null,"mission":null,"orbit_class":"UNKNOWN","rcs_meters":null,"size_class":null,"mass_kg":null,"dimensions":null,"purposes":["comms"],"wikipedia_slug":null,"has_3d_model":false,"image_url":null,"decayed_at":null,"tle_current":{"epoch":"2026-05-24T19:57:47.541600Z","epoch_age_seconds":93087,"freshness":"FRESH","line1":"1 55290U 23010X   26144.83180025 -.00000080  00000+0  11256-5 0  9999","line2":"2 55290  69.9989 192.5080 0003658 267.0976  92.9764 14.98330710184676","mean_motion":14.9833071,"eccentricity":0.0003658,"inclination_deg":69.9989,"raan_deg":192.508,"arg_perigee_deg":267.0976,"mean_anomaly_deg":92.9764,"bstar":1.1256e-6,"rev_number":18467,"period_min":96.106953584366,"perigee_km":569.5113155725,"apogee_km":574.5960750852,"semimajor_km":6950.1906953289,"source":"CELESTRAK","updated_at":"2026-05-25T13:38:17.735021Z"}}}